Regional Weather Roundup
Issued by NWS Grand Forks, ND

Home | Current Version | Previous Version | Text Only | Print | Product List | Glossary On
Versions: 1 2 3 4 5 6 7 8 9 10 11 12 13 14 15 16 17 18 19 20 21 22 23 24 25 26 27 28 29 30 31 32 33 34 35 36 37 38 39 40 41 42 43 44 45 46 47 48 49 50
000
ASUS43 KFGF 250531
RWRFGF
PRAIRIE TO PINES  WEATHER ROUNDUP
NATIONAL WEATHER SERVICE EASTERN NORTH DAKOTA/GRAND FORKS ND
1200 AM CDT SAT APR 25 2015

 **SATELLITE DATA USED TO AUGMENT SKY COVER AT AUTOMATED STATIONS**
 *****  WEATHER ACROSS EASTERN NORTH DAKOTA  *****

CITY           SKY/WX    TMP DP  RH WIND       PRES   REMARKS
GRAND FORKS    CLOUDY    46  35  65 E12       29.82S
GRAND FRKS AFB CLOUDY    46  36  67 SE7       29.82R
GRAND FRKS NWS   N/A     43 N/A N/A E6          N/A
DEVILS LAKE    CLOUDY    45  37  76 E13       29.79R
FARGO          CLOUDY    46  38  73 E8        29.79R
WAHPETON ARPT  CLOUDY    45  37  76 SE16G22   29.77S
$$

 ***** WEATHER ACROSS CENTRAL AND WESTERN NORTH DAKOTA  *****

CITY           SKY/WX    TMP DP  RH WIND       PRES   REMARKS
BISMARCK       CLEAR     47  42  83 E12       29.71S
MINOT          CLEAR     45  38  76 E13       29.72R
JAMESTOWN      CLOUDY    46  40  79 E13       29.75R
MINOT AFB      CLEAR     46  42  88 E17       29.72R
GARRISON         N/A     47  40  76 E14       29.70R
WILLISTON      CLOUDY    57  35  43 SE9       29.65S
DICKINSON      CLEAR     43  33  68 E8        29.64S
HETTINGER      CLEAR     48  35  60 E13       29.66F
$$

 *****  OTHER AIRPORT OBSERVATIONS IN OUR AREA  *****

CITY           SKY/WX    TMP DP  RH WIND       PRES   REMARKS
WALHALLA       CLOUDY    41  32  70 E10       29.84S
GRAFTON AIRPOR CLOUDY    45  36  70 SE10      29.84R
VALLEY CITY AR CLOUDY    41  41 100 E12       29.77S FOG
CANDO          FAIR      39  32  75 E10       29.80S
CAVALIER APRT  CLOUDY    41  32  70 E6        29.84R
GWINNER        CLOUDY    45  45 100 E13       29.76R
ROLLA          CLOUDY    37  32  81 E6        29.81S
 ***** THE ABOVE OBSERVATIONS ARE NON NWS ARE NOT QUALITY
       CONTROLLED AND MAY MIS-REPORT RAIN FOR SNOW...
$$

  *****  WEATHER ACROSS NORTHERN MINNESOTA  *****

CITY           SKY/WX    TMP DP  RH WIND       PRES   REMARKS
FLAG ISLAND    CLOUDY    39  25  56 E10G16    29.89F
WARROAD        CLOUDY    37  30  75 E8        29.89S
ROSEAU         CLOUDY    41  34  75 E8        29.87S
HALLOCK        CLOUDY    43  34  70 E8        29.85R
THF RVR FALLS  CLOUDY    43  30  61 E8        29.85S
BAUDETTE       CLOUDY    40  24  53 E12       29.88F
WASKISH        CLOUDY    41  30  65 CALM      29.88R
CROOKSTON      CLOUDY    45  36  70 E6        29.84S
$$
  *****  WEATHER ACROSS CENTRAL AND WEST MINNESOTA  *****

CITY           SKY/WX    TMP DP  RH WIND       PRES   REMARKS
FOSSTON        CLOUDY    41  30  65 E7        29.84R
BEMIDJI        CLOUDY    40  30  67 E12G17    29.84F
PARK RAPIDS    CLOUDY    41  31  67 E9        29.82R
ELBOW LAKE     CLOUDY    42  41  97 SE13G18   29.77R FOG
WADENA         CLOUDY    39  32  75 E8        29.79S
DETROIT LAKES  CLOUDY    41  32  70 E8        29.80S
MOORHEAD       CLOUDY    45  37  76 E7        29.80R
FERGUS FALLS   CLOUDY    45  37  76 SE14      29.79R
MORRIS MN      CLOUDY    43  43 100 E14       29.75R FOG
STAPLES        CLOUDY    41  30  65 E5        29.81S
$$
  *****  WEATHER ELSEWHERE ACROSS MINNESOTA  *****

CITY           SKY/WX    TMP DP  RH WIND       PRES   REMARKS
DULUTH         CLOUDY    36  24  62 E13G22    29.91S
INTRNTL FALLS  CLOUDY    39  21  48 E7        29.92S
ELY            CLOUDY    36  16  44 E6        29.94F
CLOQUET        CLOUDY    34  27  75 E9G21     29.90S
WHEATON        CLOUDY    41  39  93 E15       29.77S FOG
BRAINERD       CLOUDY    40  32  73 E5        29.83F
HIBBING        CLOUDY    37  17  44 E9        29.91S
ALEXANDRIA     LGT RAIN  42  40  92 E12       29.78F FOG
SAINT CLOUD    CLOUDY    44  38  79 E8        29.79F
MINNEAPOLIS    CLOUDY    44  40  85 E17       29.81F
$$

  *****  WEATHER ACROSS SOUTH DAKOTA  *****

CITY           SKY/WX    TMP DP  RH WIND       PRES   REMARKS
SIOUX FALLS    CLOUDY    52  47  83 SE12      29.61R
BROOKINGS      CLOUDY    50  45  81 SE24      29.66F
WATERTOWN      LGT RAIN  46  43  89 E10       29.67R
HURON          CLOUDY    50  46  86 E28G36    29.57R
SISSETON         N/A     45  43  93 SE16      29.73R
ABERDEEN       MOCLDY    47  43  86 NE14      29.68S
MITCHELL       CLOUDY    60  49  66 E21       29.48F
PIERRE         PTCLDY    51  44  77 NE22      29.54S
MOBRIDGE       CLEAR     49  43  80 E22       29.61S
RAPID CITY     PTCLDY    46  42  86 NW8       29.62S
$$

  *****  SOME WEATHER IN NEARBY STATES *****

CITY           SKY/WX    TMP DP  RH WIND       PRES   REMARKS
GLASGOW MT     MOCLDY    52  33  48 N9        29.60S
GREAT FALLS MT LGT RAIN  42  37  82 S6        29.73S
CHEYENNE WY    MOCLDY    45  34  65 W18       29.71S
SCOTTSBLUFF NE MOCLDY    49  42  77 SW8       29.63R
OMAHA NE       CLOUDY    58  53  84 E14       29.55F
DES MOINES IA  CLOUDY    50  44  80 E17       29.63F
DAVENPORT IA   CLOUDY    46  40  79 E16       29.78S
CHICAGO IL     CLOUDY    41  36  82 NE13      29.91F
EAU CLAIRE WI  CLOUDY    43  35  73 SE14G20   29.88F
LA CROSSE WI   CLOUDY    44  38  79 SE10      29.86F
$$

  *****  SOME NATIONAL WEATHER *****

CITY           SKY/WX    TMP DP  RH WIND       PRES   REMARKS
LA GUARDIA NY  CLEAR     40  23  50 NW16      29.93S
RALEIGH NC     MOCLDY    49  39  68 CALM      29.95F
ATLANTA GA     CLOUDY    67  49  52 S6        29.93F
NEW ORLEANS LA CLOUDY    75  72  90 SE13      29.80F
OKLAHOMA CITY  CLOUDY    63  59  87 S13       29.60F
ALBUQUERQUE NM PTCLDY    53  33  46 W9        29.96R
SALT LAKE CITY LGT RAIN  48  44  86 NW12G20   29.80R
LOS ANGELES CA MOCLDY    59  53  80 W8        30.03R
BOISE ID       MOCLDY    50  32  50 N14       29.78R
SEATTLE WA     MOCLDY    46  39  76 SE8       29.87R
$$

*** WEATHER ACROSS MANITOBA...SASKATCHEWAN AND ONTARIO ***
                ***ONTARIO***

CITY           SKY/WX    TMP DP  RH WIND       PRES   REMARKS
GERALDTON      CLEAR     23  18  80 NE3       30.07R
THUNDER BAY    CLOUDY    34  25  69 NE3       30.06S
SIOUX LOOKOUT  MOCLDY    36  19  51 SE6       29.99R
TORONTO        CLEAR     30  21  69 NW7       30.02F WCI  23
BIG TROUT LK   CLEAR     21  12  68 E5        30.11S WCI  15
PICKLE LAKE    NOT AVBL
DRYDEN         CLOUDY    39  23  52 S9        29.95F
KENORA         CLOUDY    39  28  65 SE10G18   29.93F
$$
                *** MANITOBA***

CITY           SKY/WX    TMP DP  RH WIND       PRES   REMARKS
BRANDON        PTCLDY    37  32  81 E9        29.82R
DAUPHIN        CLOUDY    46  34  61 E8        29.82S
ISLAND LAKE    PTCLDY    30  14  51 E7        30.02R WCI  23
PILOT MOUND      N/A     36  32  87 E9          N/A
THE PAS        FLURRIES  27  25  93 N9G17     29.95S WCI  17
THOMPSON       FLURRIES  25  23  93 NE8       30.04R WCI  16
WINNIPEG       CLEAR     39  30  70 SE10      29.89R
LYNN LAKE      CLEAR     21  14  73 NE2       30.04S
CHURCHILL      CLEAR     12   7  79 S9        30.19R WCI   0
GILLAM         MOCLDY    23  10  58 E5        30.14R WCI  17
$$
                ***SASKATCHEWAN***

CITY           SKY/WX    TMP DP  RH WIND       PRES   REMARKS
ESTEVAN        CLOUDY    52  37  58 E12       29.69R
KINDERSLEY     MOCLDY    39  34  81 E18G24    29.72R
LLOYDMINSTER   CLOUDY    34  28  80 E15G22    29.83R WCI  24
PRINCE ALBERT  FLURRIES  30  25  80 NE14G21   29.91S WCI  20
REGINA         MOCLDY    52  34  50 E16       29.69S
YORKTON        LGT RAIN  46  36  66 E9        29.78R
N. BATTLEFORD  CLOUDY    32  28  86 E16G22    29.85S WCI  21
LA RONGE       CLEAR     27  19  74 NE6       29.99S WCI  20
SASKATOON      MOCLDY    32  27  80 NE22      29.84R WCI  19
SWIFT CURRENT  MOCLDY    41  34  75 E10       29.68R
$$
NOTE: THESE ARE AUTOMATED STATIONS WITH LIMITED QUALITY CONTROL
      "FAIR" INDICATES FEW OR NO CLOUDS BELOW 12,000 FEET WITH NO
      SIGNIFICANT WEATHER AND/OR OBSTRUCTIONS TO VISIBILITY.
      SKY/WX - SKY CONDITION AND SIGNIFICANT WEATHER.
      TMP - AIR TEMPERATURE.    DP   - DEWPOINT TEMPERATURE.
      RH  - RELATIVE HUMIDITY.  PRES - PRESSURE.
      HX  - HEAT INDEX.         WCI  - WIND CHILL INDEX.
$


USA.gov is the U.S. government's official web portal to all federal, state and local government web resources and services.